This is the latest recevied weather packets stored in our database for station/object OM2RC-6. If no packets are shown the sender has not sent any weather packets the latest 10 day(s).
| Time | Temp. | Humidity | Pressure | Rain* | Wind** | Luminosity | Snow |
|---|---|---|---|---|---|---|---|
| 1777872364 | 13.89° C | 67% | 1016.4 hPa | - | - | - | - |
| 1777872063 | 14.44° C | 66% | 1016.7 hPa | - | - | - | - |
| 1777871762 | 14.44° C | 65% | 1016.5 hPa | - | - | - | - |
| 1777871160 | 14.44° C | 65% | 1016.7 hPa | - | - | - | - |
| 1777870860 | 14.44° C | 64% | 1016.5 hPa | - | - | - | - |
| 1777870558 | 14.44° C | 64% | 1016.5 hPa | - | - | - | - |
| 1777870256 | 14.44° C | 65% | 1016.4 hPa | - | - | - | - |
| 1777869954 | 13.89° C | 68% | 1016.5 hPa | - | - | - | - |
| 1777869652 | 13.89° C | 68% | 1016.5 hPa | - | - | - | - |
| 1777869050 | 13.89° C | 69% | 1016.6 hPa | - | - | - | - |
| 1777868750 | 13.89° C | 71% | 1016.6 hPa | - | - | - | - |
| 1777868449 | 13.89° C | 71% | 1016.7 hPa | - | - | - | - |
| 1777868146 | 13.33° C | 73% | 1016.8 hPa | - | - | - | - |
| 1777867846 | 13.33° C | 73% | 1016.6 hPa | - | - | - | - |
| 1777867545 | 13.33° C | 75% | 1016.7 hPa | - | - | - | - |
| 1777866942 | 12.78° C | 78% | 1017.1 hPa | - | - | - | - |
| 1777866640 | 12.78° C | 78% | 1017.3 hPa | - | - | - | - |
| 1777866339 | 12.22° C | 79% | 1017.3 hPa | - | - | - | - |
| 1777865737 | 12.22° C | 80% | 1017.4 hPa | - | - | - | - |
| 1777865437 | 12.22° C | 81% | 1017.4 hPa | - | - | - | - |
| 1777864533 | 12.22° C | 80% | 1017.3 hPa | - | - | - | - |
| 1777864233 | 12.22° C | 80% | 1017.4 hPa | - | - | - | - |
| 1777863932 | 12.22° C | 80% | 1017.4 hPa | - | - | - | - |
| 1777863629 | 12.22° C | 79% | 1017.5 hPa | - | - | - | - |
| 1777863026 | 12.22° C | 78% | 1017.5 hPa | - | - | - | - |
* Rain since midnight (hover to see other rain measurements)
** Current wind speed in m/s (hover to see current wind gust speed)